Flag for South Africa Weather past 2 weeks in Vereeniging, South Africa

Now
59 °F

Cool.


Feels Like: N/A
Forecast: 58 / 78 °F
Wind: N/A

Location: Vereeniging

Current Time: Apr 1, 2015 at 11:19:37 PM

Latest Report: Apr 1, 2015 at 11:00 PM


Visibility: N/A

Pressure: 30.24 "Hg

Humidity: 82%

Dew point: 54 °F

Location of VereenigingLocation

Historic Weather in Vereeniging — Graph

°F

Vereeniging temperature yesterday

Maximum temperature yesterday: 75 °F (at 3:00 PM)
Minimum temperature yesterday: 55 °F (at 1:00 AM)
Average temperature yesterday: 64 °F

Past Weeks' High & Low Weather Summary

 TemperatureHumidityPressure
High81 °F (Mar 18, 2:00 PM)94% (Mar 18, 10:00 PM)30.36 "Hg (Mar 18, 10:00 PM)
Low50 °F (Mar 28, 4:00 AM)21% (Mar 29, 4:00 PM)30.07 "Hg (Mar 18, 4:00 PM)
Average65 °F71%30.21 "Hg
* Reported Mar 17 10:00 PM — Apr 1 10:00 PM, Vereeniging, Weather by CustomWeather, © 2015

Note: Actual official high and low records may vary slightly from our data, if they occured in-between our weather recording intervals... More about our weather records

Advertising

Vereeniging weather history for previous 24 hours

 ConditionsComfort  
Time TempWeatherWind HumidityBarometerVisibility
10:00 PM
Wed, Apr 1
59 °FCool.N/A77%30.24 "HgN/A
9:00 PM63 °FMild.N/A68%30.24 "HgN/A
8:00 PM63 °FMild.N/A68%30.24 "HgN/A
7:00 PM70 °FMild.N/A53%30.21 "HgN/A
6:00 PM73 °FMild.N/A44%30.21 "HgN/A
5:00 PM77 °FPleasantly warm.N/A34%30.21 "HgN/A
4:00 PM77 °FPleasantly warm.N/A34%30.21 "HgN/A
3:00 PM77 °FPleasantly warm.N/A32%30.21 "HgN/A
2:00 PM77 °FPleasantly warm.N/A36%30.24 "HgN/A
1:00 PM75 °FMild.N/A41%30.24 "HgN/A
12:00 PM73 °FMild.N/A50%30.27 "HgN/A
11:00 AM72 °FMild.N/A53%30.30 "HgN/A
10:00 AM68 °FMild.N/A64%30.33 "HgN/A
9:00 AM66 °FMild.N/A73%30.33 "HgN/A
8:00 AM61 °FCool.N/A83%30.33 "HgN/A
7:00 AM54 °FCool.N/A94%30.30 "HgN/A
6:00 AM52 °FCool.N/A94%30.30 "HgN/A
5:00 AM54 °FCool.N/A88%30.30 "HgN/A
4:00 AM55 °FCool.N/A88%30.27 "HgN/A
3:00 AM55 °FCool.N/A88%30.27 "HgN/A
1:00 AM57 °FCool.N/A88%30.30 "HgN/A
12:00 AM55 °FCool.N/A88%30.27 "HgN/A
11:00 PM
Tue, Mar 31
57 °FCool.N/A88%30.30 "HgN/A
Weather by CustomWeather, © 2015

See weather overviewHow to use our weather pages